Meteo pe oră la Alice Springs

Astăzi, 28 Ianuarie, Joi

Timp Temperatura Precipitaţii Vânt Presiune Umiditate
00:00 +26°C° 0 mm 6 m/s 704 mmHg 58%
01:00 +26°C° 0 mm 6 m/s 704 mmHg 58%
02:00 +26°C° 0 mm 5 m/s 703 mmHg 59%
03:00 +26°C° 0 mm 5 m/s 703 mmHg 54%
04:00 +26°C° 0 mm 4 m/s 704 mmHg 56%
05:00 +25°C° 0 mm 4 m/s 704 mmHg 57%
06:00 +25°C° 0 mm 3 m/s 704 mmHg 58%
07:00 +27°C° 0 mm 4 m/s 704 mmHg 52%
08:00 +29°C° 0 mm 4 m/s 704 mmHg 46%
09:00 +27°C° 0 mm 2 m/s 705 mmHg 62%
10:00 +29°C° 0 mm 2 m/s 705 mmHg 55%
11:00 +31°C° 0 mm 2 m/s 704 mmHg 48%
12:00 +32°C° 0 mm 2 m/s 704 mmHg 42%
13:00 +34°C° 0 mm 2 m/s 704 mmHg 40%
14:00 +35°C° 0 mm 2 m/s 703 mmHg 37%
15:00 +36°C° 0 mm 2 m/s 703 mmHg 36%
16:00 +35°C° 0.4 mm 2 m/s 703 mmHg 38%
17:00 +35°C° 0.4 mm 2 m/s 703 mmHg 39%
18:00 +35°C° 0.4 mm 2 m/s 703 mmHg 41%
19:00 +34°C° 0.1 mm 3 m/s 703 mmHg 42%
20:00 +34°C° 0.1 mm 3 m/s 704 mmHg 44%
21:00 +33°C° 0.1 mm 3 m/s 705 mmHg 46%
22:00 +31°C° 0 mm 3 m/s 704 mmHg 51%
23:00 +30°C° 0 mm 3 m/s 704 mmHg 56%

Mâine, 29 Ianuarie, Vineri

Timp Temperatura Precipitaţii Vânt Presiune Umiditate
00:00 +29°C° 0 mm 3 m/s 704 mmHg 60%
01:00 +29°C° 0 mm 3 m/s 704 mmHg 61%
02:00 +29°C° 0 mm 3 m/s 704 mmHg 62%
03:00 +28°C° 0 mm 3 m/s 703 mmHg 63%
04:00 +28°C° 0 mm 3 m/s 704 mmHg 64%
05:00 +28°C° 0 mm 3 m/s 704 mmHg 64%
06:00 +28°C° 0 mm 3 m/s 704 mmHg 64%
07:00 +29°C° 0 mm 3 m/s 705 mmHg 59%
08:00 +30°C° 0 mm 4 m/s 705 mmHg 54%
09:00 +33°C° 0 mm 4 m/s 705 mmHg 49%
10:00 +34°C° 0 mm 4 m/s 705 mmHg 45%
11:00 +35°C° 0 mm 4 m/s 705 mmHg 41%
12:00 +37°C° 0 mm 4 m/s 704 mmHg 37%
13:00 +37°C° 0 mm 5 m/s 704 mmHg 37%
14:00 +37°C° 0 mm 5 m/s 704 mmHg 37%
15:00 +37°C° 0 mm 5 m/s 704 mmHg 37%
16:00 +35°C° 1.4 mm 5 m/s 703 mmHg 46%
17:00 +32°C° 1.4 mm 5 m/s 703 mmHg 55%
18:00 +29°C° 1.4 mm 4 m/s 703 mmHg 64%
19:00 +29°C° 0.8 mm 3 m/s 704 mmHg 62%
20:00 +29°C° 0.8 mm 3 m/s 704 mmHg 60%
21:00 +30°C° 0.8 mm 2 m/s 705 mmHg 58%
22:00 +30°C° 0 mm 2 m/s 705 mmHg 57%
23:00 +30°C° 0 mm 3 m/s 705 mmHg 57%

Poimâine, 30 Ianuarie, Sâmbătă

Timp Temperatura Precipitaţii Vânt Presiune Umiditate
00:00 +30°C° 0 mm 3 m/s 705 mmHg 57%
01:00 +29°C° 0.1 mm 4 m/s 705 mmHg 56%
02:00 +29°C° 0.1 mm 4 m/s 705 mmHg 54%
03:00 +29°C° 0.1 mm 4 m/s 704 mmHg 53%
04:00 +29°C° 0 mm 4 m/s 705 mmHg 54%
05:00 +29°C° 0 mm 4 m/s 705 mmHg 55%
06:00 +29°C° 0 mm 4 m/s 705 mmHg 55%
07:00 +30°C° 0 mm 5 m/s 705 mmHg 52%
08:00 +32°C° 0 mm 7 m/s 706 mmHg 49%
09:00 +33°C° 0 mm 8 m/s 706 mmHg 46%
10:00 +34°C° 0 mm 8 m/s 706 mmHg 42%
11:00 +35°C° 0 mm 7 m/s 706 mmHg 38%
12:00 +38°C° 0 mm 7 m/s 706 mmHg 35%
13:00 +38°C° 0 mm 7 m/s 705 mmHg 34%
14:00 +38°C° 0 mm 6 m/s 705 mmHg 33%
15:00 +37°C° 0 mm 5 m/s 704 mmHg 33%
16:00 +37°C° 0 mm 5 m/s 704 mmHg 34%
17:00 +36°C° 0 mm 6 m/s 704 mmHg 35%
18:00 +36°C° 0 mm 6 m/s 705 mmHg 36%
19:00 +35°C° 0.2 mm 5 m/s 705 mmHg 38%
20:00 +34°C° 0.2 mm 5 m/s 705 mmHg 41%
21:00 +33°C° 0.2 mm 5 m/s 705 mmHg 44%
22:00 +33°C° 0.3 mm 5 m/s 705 mmHg 46%
23:00 +32°C° 0.3 mm 5 m/s 705 mmHg 48%

31 Ianuarie, Duminică

Timp Temperatura Precipitaţii Vânt Presiune Umiditate
00:00 +30°C° 0.3 mm 4 m/s 705 mmHg 50%
01:00 +30°C° 0.4 mm 4 m/s 705 mmHg 50%
02:00 +30°C° 0.4 mm 4 m/s 705 mmHg 51%
03:00 +30°C° 0.4 mm 4 m/s 705 mmHg 51%
04:00 +29°C° 0.1 mm 4 m/s 705 mmHg 50%
05:00 +29°C° 0.1 mm 5 m/s 706 mmHg 48%
06:00 +29°C° 0.1 mm 5 m/s 706 mmHg 47%
07:00 +30°C° 0 mm 7 m/s 706 mmHg 42%
08:00 +33°C° 0 mm 8 m/s 707 mmHg 37%
09:00 +34°C° 0 mm 9 m/s 707 mmHg 32%
10:00 +35°C° 0 mm 8 m/s 707 mmHg 30%
11:00 +37°C° 0 mm 8 m/s 707 mmHg 29%
12:00 +39°C° 0 mm 7 m/s 707 mmHg 27%
13:00 +39°C° 0 mm 7 m/s 706 mmHg 26%
14:00 +40°C° 0 mm 6 m/s 705 mmHg 25%
15:00 +40°C° 0 mm 6 m/s 705 mmHg 23%
16:00 +40°C° 0 mm 6 m/s 705 mmHg 24%
17:00 +40°C° 0 mm 7 m/s 705 mmHg 24%
18:00 +39°C° 0 mm 7 m/s 705 mmHg 25%
19:00 +38°C° 0 mm 7 m/s 705 mmHg 26%
20:00 +36°C° 0 mm 6 m/s 705 mmHg 27%
21:00 +35°C° 0 mm 6 m/s 706 mmHg 29%
22:00 +34°C° 0 mm 6 m/s 706 mmHg 29%
23:00 +34°C° 0 mm 6 m/s 705 mmHg 29%

1 Februarie, Luni

Timp Temperatura Precipitaţii Vânt Presiune Umiditate
00:00 +33°C° 0 mm 6 m/s 705 mmHg 29%
01:00 +32°C° 0 mm 5 m/s 705 mmHg 29%
02:00 +32°C° 0 mm 5 m/s 705 mmHg 29%
03:00 +30°C° 0 mm 4 m/s 705 mmHg 28%
04:00 +29°C° 0 mm 4 m/s 705 mmHg 28%
05:00 +29°C° 0 mm 4 m/s 705 mmHg 28%
06:00 +29°C° 0 mm 4 m/s 705 mmHg 28%
07:00 +30°C° 0 mm 5 m/s 706 mmHg 26%
08:00 +33°C° 0 mm 6 m/s 706 mmHg 24%
09:00 +35°C° 0 mm 8 m/s 707 mmHg 21%
10:00 +37°C° 0 mm 8 m/s 707 mmHg 21%
11:00 +39°C° 0 mm 8 m/s 706 mmHg 20%
12:00 +40°C° 0 mm 8 m/s 706 mmHg 20%
13:00 +40°C° 0 mm 7 m/s 706 mmHg 19%
14:00 +41°C° 0 mm 7 m/s 705 mmHg 19%
15:00 +41°C° 0 mm 7 m/s 705 mmHg 19%
16:00 +41°C° 0 mm 8 m/s 705 mmHg 19%
17:00 +40°C° 0 mm 8 m/s 705 mmHg 20%
18:00 +39°C° 0 mm 9 m/s 705 mmHg 20%
19:00 +38°C° 0 mm 9 m/s 706 mmHg 22%
20:00 +37°C° 0 mm 9 m/s 706 mmHg 24%
21:00 +34°C° 0 mm 9 m/s 706 mmHg 26%
22:00 +34°C° 0 mm 9 m/s 706 mmHg 26%
23:00 +34°C° 0 mm 8 m/s 706 mmHg 25%

2 Februarie, Marţi

Timp Temperatura Precipitaţii Vânt Presiune Umiditate
00:00 +33°C° 0 mm 8 m/s 706 mmHg 25%
01:00 +33°C° 0 mm 8 m/s 706 mmHg 27%
02:00 +32°C° 0 mm 8 m/s 706 mmHg 29%
03:00 +31°C° 0 mm 8 m/s 705 mmHg 32%
04:00 +31°C° 0 mm 8 m/s 706 mmHg 32%
05:00 +29°C° 0 mm 9 m/s 706 mmHg 32%
06:00 +29°C° 0 mm 9 m/s 707 mmHg 33%
07:00 +29°C° 0 mm 9 m/s 707 mmHg 30%
08:00 +29°C° 0 mm 9 m/s 707 mmHg 28%
09:00 +29°C° 0 mm 9 m/s 708 mmHg 25%
10:00 +31°C° 0 mm 9 m/s 707 mmHg 24%
11:00 +33°C° 0 mm 9 m/s 707 mmHg 23%
12:00 +34°C° 0 mm 9 m/s 707 mmHg 22%
13:00 +35°C° 0 mm 9 m/s 707 mmHg 23%
14:00 +37°C° 0 mm 9 m/s 706 mmHg 23%
15:00 +37°C° 0 mm 9 m/s 706 mmHg 23%
16:00 +37°C° 0 mm 8 m/s 705 mmHg 23%
17:00 +35°C° 0 mm 8 m/s 705 mmHg 24%
18:00 +34°C° 0 mm 8 m/s 705 mmHg 25%
19:00 +33°C° 0 mm 8 m/s 706 mmHg 26%
20:00 +32°C° 0 mm 7 m/s 706 mmHg 27%
21:00 +30°C° 0 mm 7 m/s 706 mmHg 28%
22:00 +29°C° 0 mm 7 m/s 706 mmHg 25%
23:00 +28°C° 0 mm 7 m/s 707 mmHg 23%
Arată mai mult

Formular de consimțământ

Meteoprog și furnizorii noștri de servicii pot stoca și accesa date personale, precum cookies, identificatori de dispozitiv sau alte tehnologii similare pe dispozitivul dumneavoastră și procesa astfel de date pentru a personaliza conținutul și reclamele, dar și pentru a oferi caracteristici de social media și pentru a analiza traficul.

  • Stocarea și/sau accesarea informațiilor pe dispozitivul dumneavoastră

    Cookies, identificatori de dispozitiv sau alte informații pot fi stocate sau accesate pe dispozitiv în scopurile indicate mai sus.

  • Reclame și conținut personalizat, evaluarea reclamelor și a conținutului, informații despre audiențe și dezvoltarea produselor

    Reclamele și conținutul pot fi personalizate pe baza unui profil. Pot fi adăugate date suplimentare pentru a personaliza mai bine reclamele și conținutul. Performanța reclamelor și conținutului poate fi măsurată. Pot fi obținute informații despre utilizatorii care au văzut reclamele și conținutul. Aceste date pot fi utilizate pentru a dezvolta sau îmbunătăți experiența utilizatorilor, sistemele și software-ul.

Dând clic pe ‘Sunt de acord’, permiteți utilizarea cookie-urilor menționate, a identificatorilor de dispozitiv, balizelor web sau altor tehnologii similare. Setările pot fi modificate din browser-ul dispozitivului dumneavoastră.

În anumite scopuri, interesele legitime pot prima asupra consimțământului. Puteți citi mai multe informații în acest sens în Politica privind Confidențialitatea Datelor și Cookie.